{"data":{"norad_id":53655,"epoch":"2026-05-25T04:00:03.998880Z","epoch_age_seconds":57661,"freshness":"FRESH","line1":"1 53655U 22105H   26145.16671295  .00096882  00000+0  21840-2 0  9998","line2":"2 53655  97.6021  28.3403 0001721  92.9882 119.9747 15.42886576  5836","mean_motion":15.42886576,"eccentricity":0.0001721,"inclination_deg":97.6021,"raan_deg":28.3403,"arg_perigee_deg":92.9882,"mean_anomaly_deg":119.9747,"bstar":0.002184,"rev_number":583,"period_min":93.331552843843,"perigee_km":436.4220502193,"apogee_km":438.76802518668,"semimajor_km":6815.732037703,"source":"CELESTRAK","updated_at":"2026-05-25T13:38:17.485804Z"}}